Year,Month,Day,Hour,Minute,Value (Times are PST for windspeed in km/hr)
2015,01,16,00,00,20.90
2015,01,16,00,01,16.50
2015,01,16,00,02,24.00
2015,01,16,00,03,30.30
2015,01,16,00,04,21.00
2015,01,16,00,05,34.00
2015,01,16,00,06,25.60
2015,01,16,00,07,20.40
2015,01,16,00,08,18.50
2015,01,16,00,09,22.10
2015,01,16,00,10,22.70
2015,01,16,00,11,30.60
2015,01,16,00,12,20.80
2015,01,16,00,13,28.80
2015,01,16,00,14,17.60
2015,01,16,00,15,21.10
2015,01,16,00,16,43.90
2015,01,16,00,17,46.70
2015,01,16,00,18,41.80
2015,01,16,00,19,20.20
2015,01,16,00,20,25.10
2015,01,16,00,21,22.40
2015,01,16,00,22,23.90
2015,01,16,00,23,25.40
2015,01,16,00,24,24.30
2015,01,16,00,25,19.20
2015,01,16,00,26,27.70
2015,01,16,00,27,23.70
2015,01,16,00,28,18.90
2015,01,16,00,29,23.50
2015,01,16,00,30,21.90
2015,01,16,00,31,22.80
2015,01,16,00,32,23.80
2015,01,16,00,33,16.40
2015,01,16,00,34,17.80
2015,01,16,00,35,21.30
2015,01,16,00,36,16.70
2015,01,16,00,37,18.00
2015,01,16,00,38,27.70
2015,01,16,00,39,16.20
2015,01,16,00,40,18.70
2015,01,16,00,41,15.50
2015,01,16,00,42,21.60
2015,01,16,00,43,24.70
2015,01,16,00,44,19.90
2015,01,16,00,45,25.60
2015,01,16,00,46,17.00
2015,01,16,00,47,24.40
2015,01,16,00,48,21.90
2015,01,16,00,49,18.90
2015,01,16,00,50,13.90
2015,01,16,00,51,25.00
2015,01,16,00,52,15.90
2015,01,16,00,53,19.50
2015,01,16,00,54,18.00
2015,01,16,00,55,17.30
2015,01,16,00,56,13.50
2015,01,16,00,57,12.50
2015,01,16,00,58,16.30
2015,01,16,00,59,20.70
2015,01,16,01,00,22.20
2015,01,16,01,01,12.60
2015,01,16,01,02,21.80
2015,01,16,01,03,21.50
2015,01,16,01,04,18.90
2015,01,16,01,05,22.00
2015,01,16,01,06,26.40
2015,01,16,01,07,17.50
2015,01,16,01,08,23.90
2015,01,16,01,09,18.40
2015,01,16,01,10,21.50
2015,01,16,01,11,19.20
2015,01,16,01,12,15.00
2015,01,16,01,13,18.90
2015,01,16,01,14,17.60
2015,01,16,01,15,13.20
2015,01,16,01,16,18.90
2015,01,16,01,17,21.00
2015,01,16,01,18,18.30
2015,01,16,01,19,17.30
2015,01,16,01,20,18.80
2015,01,16,01,21,17.50
2015,01,16,01,22,17.60
2015,01,16,01,23,17.50
2015,01,16,01,24,17.30
2015,01,16,01,25,20.50
2015,01,16,01,26,17.90
2015,01,16,01,27,18.20
2015,01,16,01,28,14.80
2015,01,16,01,29,12.70
2015,01,16,01,30,9.30
2015,01,16,01,31,14.00
2015,01,16,01,32,14.80
2015,01,16,01,33,15.00
2015,01,16,01,34,12.00
2015,01,16,01,35,10.30
2015,01,16,01,36,15.50
2015,01,16,01,37,12.40
2015,01,16,01,38,15.80
2015,01,16,01,39,10.30
2015,01,16,01,40,12.60
2015,01,16,01,41,12.30
2015,01,16,01,42,16.40
2015,01,16,01,43,10.50
2015,01,16,01,44,11.90
2015,01,16,01,45,15.30
2015,01,16,01,46,14.00
2015,01,16,01,47,14.90
2015,01,16,01,48,11.60
2015,01,16,01,49,19.20
2015,01,16,01,50,19.40
2015,01,16,01,51,20.20
2015,01,16,01,52,14.50
2015,01,16,01,53,18.80
2015,01,16,01,54,16.00
2015,01,16,01,55,19.30
2015,01,16,01,56,24.30
2015,01,16,01,57,18.30
2015,01,16,01,58,11.60
2015,01,16,01,59,14.80
2015,01,16,02,00,13.80
2015,01,16,02,01,19.70
2015,01,16,02,02,18.10
2015,01,16,02,03,16.00
2015,01,16,02,04,13.00
2015,01,16,02,05,12.80
2015,01,16,02,06,19.20
2015,01,16,02,07,13.90
2015,01,16,02,08,16.20
2015,01,16,02,09,18.60
2015,01,16,02,10,13.40
2015,01,16,02,11,16.20
2015,01,16,02,12,12.40
2015,01,16,02,13,23.60
2015,01,16,02,14,20.90
2015,01,16,02,15,15.20
2015,01,16,02,16,17.80
2015,01,16,02,17,21.40
2015,01,16,02,18,17.00
2015,01,16,02,19,16.10
2015,01,16,02,20,23.60
2015,01,16,02,21,13.70
2015,01,16,02,22,13.00
2015,01,16,02,23,15.30
2015,01,16,02,24,14.80
2015,01,16,02,25,13.50
2015,01,16,02,26,13.30
2015,01,16,02,27,13.00
2015,01,16,02,28,19.20
2015,01,16,02,29,9.50
2015,01,16,02,30,12.60
2015,01,16,02,31,11.80
2015,01,16,02,32,14.30
2015,01,16,02,33,11.00
2015,01,16,02,34,19.00
2015,01,16,02,35,16.10
2015,01,16,02,36,17.50
2015,01,16,02,37,18.80
2015,01,16,02,38,13.50
2015,01,16,02,39,18.60
2015,01,16,02,40,18.60
2015,01,16,02,41,12.90
2015,01,16,02,42,12.00
2015,01,16,02,43,9.00
2015,01,16,02,44,14.30
2015,01,16,02,45,15.30
2015,01,16,02,46,15.60
2015,01,16,02,47,15.10
2015,01,16,02,48,11.50
2015,01,16,02,49,17.10
2015,01,16,02,50,12.50
2015,01,16,02,51,12.20
2015,01,16,02,52,14.20
2015,01,16,02,53,10.50
2015,01,16,02,54,13.00
2015,01,16,02,55,10.70
2015,01,16,02,56,10.00
2015,01,16,02,57,11.80
2015,01,16,02,58,10.90
2015,01,16,02,59,10.00
2015,01,16,03,00,9.60
2015,01,16,03,01,13.30
2015,01,16,03,02,14.90
2015,01,16,03,03,10.10
2015,01,16,03,06,11.30
2015,01,16,03,07,11.90
2015,01,16,03,08,8.00
2015,01,16,03,09,11.50
2015,01,16,03,10,11.80
2015,01,16,03,11,12.10
2015,01,16,03,12,11.00
2015,01,16,03,13,14.40
2015,01,16,03,14,11.70
2015,01,16,03,15,16.20
2015,01,16,03,16,10.00
2015,01,16,03,17,14.30
2015,01,16,03,18,8.40
2015,01,16,03,19,10.40
2015,01,16,03,20,13.60
2015,01,16,03,21,12.10
2015,01,16,03,22,7.90
2015,01,16,03,23,11.90
2015,01,16,03,24,10.50
2015,01,16,03,25,8.50
2015,01,16,03,26,12.20
2015,01,16,03,27,13.00
2015,01,16,03,28,7.60
2015,01,16,03,29,11.00
2015,01,16,03,30,10.70
2015,01,16,03,31,9.90
2015,01,16,03,32,11.20
2015,01,16,03,33,5.60
2015,01,16,03,34,10.70
2015,01,16,03,35,14.00
2015,01,16,03,36,14.50
2015,01,16,03,37,13.50
2015,01,16,03,38,4.50
2015,01,16,03,39,5.30
2015,01,16,03,40,5.10
2015,01,16,03,41,10.30
2015,01,16,03,42,8.00
2015,01,16,03,43,14.90
2015,01,16,03,44,10.70
2015,01,16,03,45,9.00
2015,01,16,03,46,7.40
2015,01,16,03,47,4.70
2015,01,16,03,48,1.50
2015,01,16,03,49,6.40
2015,01,16,03,50,2.50
2015,01,16,03,51,2.00
2015,01,16,03,52,0.00
2015,01,16,03,53,0.00
2015,01,16,03,54,0.10
2015,01,16,03,55,0.00
2015,01,16,03,56,2.40
2015,01,16,03,57,0.60
2015,01,16,03,58,0.10
2015,01,16,03,59,0.30
2015,01,16,04,00,1.50
2015,01,16,04,01,2.60
2015,01,16,04,02,2.70
2015,01,16,04,03,0.00
2015,01,16,04,04,0.00
2015,01,16,04,05,0.00
2015,01,16,04,06,0.00
2015,01,16,04,07,0.00
2015,01,16,04,08,0.90
2015,01,16,04,09,7.60
2015,01,16,04,10,1.40
2015,01,16,04,11,0.00
2015,01,16,04,12,0.00
2015,01,16,04,13,0.00
2015,01,16,04,14,0.00
2015,01,16,04,15,0.00
2015,01,16,04,16,2.70
2015,01,16,04,17,0.10
2015,01,16,04,18,0.00
2015,01,16,04,19,0.00
2015,01,16,04,20,0.00
2015,01,16,04,21,0.00
2015,01,16,04,22,0.00
2015,01,16,04,23,0.00
2015,01,16,04,24,0.00
2015,01,16,04,25,0.00
2015,01,16,04,26,0.00
2015,01,16,04,27,0.00
2015,01,16,04,28,0.00
2015,01,16,04,29,0.00
2015,01,16,04,30,0.00
2015,01,16,04,31,0.00
2015,01,16,04,32,0.90
2015,01,16,04,33,0.80
2015,01,16,04,34,0.00
2015,01,16,04,35,0.00
2015,01,16,04,36,0.20
2015,01,16,04,37,2.40
2015,01,16,04,38,3.60
2015,01,16,04,39,3.80
2015,01,16,04,40,2.50
2015,01,16,04,41,0.00
2015,01,16,04,42,0.00
2015,01,16,04,43,0.20
2015,01,16,04,44,1.00
2015,01,16,04,45,0.00
2015,01,16,04,46,0.00
2015,01,16,04,47,0.00
2015,01,16,04,48,0.00
2015,01,16,04,49,0.00
2015,01,16,04,50,0.00
2015,01,16,04,51,0.00
2015,01,16,04,52,0.00
2015,01,16,04,53,0.10
2015,01,16,04,54,0.00
2015,01,16,04,55,0.00
2015,01,16,04,56,0.00
2015,01,16,04,57,0.00
2015,01,16,04,58,0.00
2015,01,16,04,59,0.00
2015,01,16,05,00,0.00
2015,01,16,05,01,0.00
2015,01,16,05,02,0.00
2015,01,16,05,03,0.00
2015,01,16,05,04,0.80
2015,01,16,05,05,2.10
2015,01,16,05,06,0.80
2015,01,16,05,07,0.00
2015,01,16,05,08,0.00
2015,01,16,05,09,0.00
2015,01,16,05,10,0.00
2015,01,16,05,11,0.00
2015,01,16,05,12,0.00
2015,01,16,05,13,0.00
2015,01,16,05,14,0.00
2015,01,16,05,15,0.00
2015,01,16,05,16,0.00
2015,01,16,05,17,0.00
2015,01,16,05,18,0.00
2015,01,16,05,19,0.00
2015,01,16,05,20,0.00
2015,01,16,05,21,0.00
2015,01,16,05,22,0.00
2015,01,16,05,23,0.00
2015,01,16,05,24,0.00
2015,01,16,05,25,0.00
2015,01,16,05,26,0.00
2015,01,16,05,27,0.00
2015,01,16,05,28,0.00
2015,01,16,05,29,0.00
2015,01,16,05,30,0.00
2015,01,16,05,31,0.00
2015,01,16,05,32,0.00
2015,01,16,05,33,0.00
2015,01,16,05,34,0.00
2015,01,16,05,35,0.00
2015,01,16,05,36,0.00
2015,01,16,05,37,0.00
2015,01,16,05,38,0.00
2015,01,16,05,39,0.00
2015,01,16,05,40,0.00
2015,01,16,05,41,0.00
2015,01,16,05,42,0.00
2015,01,16,05,43,0.00
2015,01,16,05,44,0.00
2015,01,16,05,45,0.00
2015,01,16,05,46,0.00
2015,01,16,05,47,0.00
2015,01,16,05,48,0.00
2015,01,16,05,49,0.00
2015,01,16,05,50,0.00
2015,01,16,05,51,0.00
2015,01,16,05,52,0.00
2015,01,16,05,53,0.00
2015,01,16,05,54,0.00
2015,01,16,05,55,0.00
2015,01,16,05,56,0.00
2015,01,16,05,57,0.00
2015,01,16,05,58,0.00
2015,01,16,05,59,0.00
2015,01,16,06,00,0.00
2015,01,16,06,01,0.00
2015,01,16,06,02,0.00
2015,01,16,06,03,0.00
2015,01,16,06,04,0.00
2015,01,16,06,05,0.00
2015,01,16,06,06,0.00
2015,01,16,06,07,0.00
2015,01,16,06,08,0.00
2015,01,16,06,09,0.00
2015,01,16,06,10,0.00
2015,01,16,06,11,0.00
2015,01,16,06,12,0.00
2015,01,16,06,13,0.00
2015,01,16,06,14,0.00
2015,01,16,06,15,0.00
2015,01,16,06,16,0.00
2015,01,16,06,17,0.00
2015,01,16,06,18,0.00
2015,01,16,06,19,0.00
2015,01,16,06,20,0.00
2015,01,16,06,21,0.00
2015,01,16,06,22,0.00
2015,01,16,06,23,0.00
2015,01,16,06,24,0.90
2015,01,16,06,25,1.90
2015,01,16,06,26,2.10
2015,01,16,06,27,2.40
2015,01,16,06,28,0.30
2015,01,16,06,29,0.00
2015,01,16,06,30,0.00
2015,01,16,06,31,0.00
2015,01,16,06,32,0.00
2015,01,16,06,33,0.00
2015,01,16,06,34,0.00
2015,01,16,06,35,0.00
2015,01,16,06,36,0.00
2015,01,16,06,37,0.00
2015,01,16,06,38,0.10
2015,01,16,06,39,0.00
2015,01,16,06,40,0.00
2015,01,16,06,41,0.00
2015,01,16,06,42,0.00
2015,01,16,06,43,0.30
2015,01,16,06,44,2.20
2015,01,16,06,45,1.50
2015,01,16,06,46,2.10
2015,01,16,06,47,0.80
2015,01,16,06,48,1.10
2015,01,16,06,49,3.10
2015,01,16,06,50,0.80
2015,01,16,06,51,0.00
2015,01,16,06,52,0.10
2015,01,16,06,53,0.00
2015,01,16,06,54,2.80
2015,01,16,06,55,0.40
2015,01,16,06,56,1.10
2015,01,16,06,57,2.90
2015,01,16,06,58,1.00
2015,01,16,06,59,0.00
2015,01,16,07,00,0.00
2015,01,16,07,01,1.00
2015,01,16,07,02,0.00
2015,01,16,07,03,0.00
2015,01,16,07,04,0.00
2015,01,16,07,05,0.00
2015,01,16,07,06,0.00
2015,01,16,07,07,0.00
2015,01,16,07,08,0.00
2015,01,16,07,09,0.00
2015,01,16,07,10,0.00
2015,01,16,07,11,0.00
2015,01,16,07,12,0.00
2015,01,16,07,13,0.00
2015,01,16,07,14,0.00
2015,01,16,07,15,0.00
2015,01,16,07,16,0.00
2015,01,16,07,17,0.00
2015,01,16,07,18,0.00
2015,01,16,07,19,0.00
2015,01,16,07,20,0.00
2015,01,16,07,21,0.10
2015,01,16,07,22,0.00
2015,01,16,07,23,0.00
2015,01,16,07,24,0.00
2015,01,16,07,25,0.00
2015,01,16,07,26,0.00
2015,01,16,07,27,0.80
2015,01,16,07,28,2.10
2015,01,16,07,29,2.20
2015,01,16,07,30,0.30
2015,01,16,07,31,0.00
2015,01,16,07,32,0.00
2015,01,16,07,33,0.00
2015,01,16,07,34,0.00
2015,01,16,07,35,0.00
2015,01,16,07,36,0.00
2015,01,16,07,37,0.00
2015,01,16,07,38,0.00
2015,01,16,07,39,0.00
2015,01,16,07,40,0.00
2015,01,16,07,41,0.00
2015,01,16,07,42,0.00
2015,01,16,07,43,0.00
2015,01,16,07,44,0.00
2015,01,16,07,45,0.00
2015,01,16,07,46,0.00
2015,01,16,07,47,0.00
2015,01,16,07,48,0.00
2015,01,16,07,49,0.00
2015,01,16,07,50,0.00
2015,01,16,07,51,0.00
2015,01,16,07,52,0.00
2015,01,16,07,53,0.00
2015,01,16,07,54,0.00
2015,01,16,07,55,0.00
2015,01,16,07,56,0.00
2015,01,16,07,57,0.00
2015,01,16,07,58,0.00
2015,01,16,07,59,0.00
2015,01,16,08,00,0.00
2015,01,16,08,01,0.00
2015,01,16,08,02,0.00
2015,01,16,08,03,0.00
2015,01,16,08,04,0.00
2015,01,16,08,05,0.00
2015,01,16,08,06,0.00
2015,01,16,08,07,0.00
2015,01,16,08,08,0.00
2015,01,16,08,09,0.00
2015,01,16,08,10,0.00
2015,01,16,08,11,0.00
2015,01,16,08,12,0.00
2015,01,16,08,13,0.00
2015,01,16,08,14,0.00
2015,01,16,08,15,0.00
2015,01,16,08,16,0.00
2015,01,16,08,17,0.00
2015,01,16,08,18,0.00
2015,01,16,08,19,0.00
2015,01,16,08,20,0.00
2015,01,16,08,21,0.00
2015,01,16,08,22,0.00
2015,01,16,08,23,0.00
2015,01,16,08,24,0.00
2015,01,16,08,25,0.00
2015,01,16,08,26,0.00
2015,01,16,08,27,0.00
2015,01,16,08,28,0.00
2015,01,16,08,29,0.00
2015,01,16,08,30,0.00
2015,01,16,08,31,1.70
2015,01,16,08,32,1.60
2015,01,16,08,33,1.60
2015,01,16,08,34,0.00
2015,01,16,08,35,0.00
2015,01,16,08,36,0.00
2015,01,16,08,37,0.00
2015,01,16,08,38,0.10
2015,01,16,08,39,0.80
2015,01,16,08,40,0.00
2015,01,16,08,41,0.00
2015,01,16,08,42,0.00
2015,01,16,08,43,0.00
2015,01,16,08,44,0.00
2015,01,16,08,45,0.00
2015,01,16,08,46,0.00
2015,01,16,08,47,0.00
2015,01,16,08,48,0.00
2015,01,16,08,49,0.00
2015,01,16,08,50,0.00
2015,01,16,08,51,1.10
2015,01,16,08,52,1.30
2015,01,16,08,53,0.00
2015,01,16,08,54,0.00
2015,01,16,08,55,0.00
2015,01,16,08,56,0.00
2015,01,16,08,57,0.00
2015,01,16,08,58,0.00
2015,01,16,08,59,0.00
2015,01,16,09,00,0.00
2015,01,16,09,01,0.00
2015,01,16,09,02,0.00
2015,01,16,09,03,0.00
2015,01,16,09,04,0.00
2015,01,16,09,05,0.00
2015,01,16,09,06,0.00
2015,01,16,09,07,0.00
2015,01,16,09,08,0.00
2015,01,16,09,09,0.00
2015,01,16,09,10,0.00
2015,01,16,09,11,0.00
2015,01,16,09,12,0.00
2015,01,16,09,13,0.00
2015,01,16,09,14,0.00
2015,01,16,09,15,2.00
2015,01,16,09,16,1.50
2015,01,16,09,17,0.00
2015,01,16,09,18,0.00
2015,01,16,09,19,0.00
2015,01,16,09,20,0.00
2015,01,16,09,21,0.00
2015,01,16,09,22,0.00
2015,01,16,09,23,3.30
2015,01,16,09,24,2.50
2015,01,16,09,25,0.20
2015,01,16,09,26,0.10
2015,01,16,09,27,0.00
2015,01,16,09,28,0.10
2015,01,16,09,29,0.00
2015,01,16,09,30,0.00
2015,01,16,09,31,0.00
2015,01,16,09,32,0.00
2015,01,16,09,33,0.00
2015,01,16,09,34,1.80
2015,01,16,09,35,1.80
2015,01,16,09,36,1.70
2015,01,16,09,37,0.00
2015,01,16,09,38,0.00
2015,01,16,09,39,0.00
2015,01,16,09,40,0.00
2015,01,16,09,41,0.00
2015,01,16,09,42,0.00
2015,01,16,09,43,0.10
2015,01,16,09,44,0.00
2015,01,16,09,45,0.00
2015,01,16,09,46,2.90
2015,01,16,09,47,2.80
2015,01,16,09,48,1.10
2015,01,16,09,49,0.00
2015,01,16,09,50,0.00
2015,01,16,09,51,0.00
2015,01,16,09,52,0.00
2015,01,16,09,53,0.00
2015,01,16,09,54,0.00
2015,01,16,09,55,0.00
2015,01,16,09,56,0.00
2015,01,16,09,57,0.00
2015,01,16,09,58,0.00
2015,01,16,09,59,0.00
2015,01,16,10,00,0.00
2015,01,16,10,01,0.00
2015,01,16,10,02,0.00
2015,01,16,10,03,0.00
2015,01,16,10,04,0.00
2015,01,16,10,05,0.00
2015,01,16,10,06,0.00
2015,01,16,10,07,0.00
2015,01,16,10,08,0.00
2015,01,16,10,09,0.00
2015,01,16,10,10,0.00
2015,01,16,10,11,0.00
2015,01,16,10,12,0.00
2015,01,16,10,13,0.00
2015,01,16,10,14,0.00
2015,01,16,10,15,0.00
2015,01,16,10,16,0.00
2015,01,16,10,17,0.00
2015,01,16,10,18,0.00
2015,01,16,10,19,0.00
2015,01,16,10,20,0.00
2015,01,16,10,21,0.00
2015,01,16,10,22,0.00
2015,01,16,10,23,0.00
2015,01,16,10,24,0.00
2015,01,16,10,25,0.00
2015,01,16,10,26,0.00
2015,01,16,10,27,0.00
2015,01,16,10,28,0.00
2015,01,16,10,29,0.00
2015,01,16,10,30,0.00
2015,01,16,10,31,0.00
2015,01,16,10,32,0.00
2015,01,16,10,33,0.00
2015,01,16,10,34,0.80
2015,01,16,10,35,2.10
2015,01,16,10,36,0.30
2015,01,16,10,37,0.00
2015,01,16,10,38,0.00
2015,01,16,10,39,0.00
2015,01,16,10,40,0.00
2015,01,16,10,41,0.00
2015,01,16,10,42,0.00
2015,01,16,10,43,0.00
2015,01,16,10,44,0.00
2015,01,16,10,45,0.00
2015,01,16,10,46,0.00
2015,01,16,10,47,0.00
2015,01,16,10,48,0.80
2015,01,16,10,49,2.80
2015,01,16,10,50,2.40
2015,01,16,10,51,0.10
2015,01,16,10,52,0.00
2015,01,16,10,53,0.20
2015,01,16,10,54,0.70
2015,01,16,10,55,0.00
2015,01,16,10,56,0.00
2015,01,16,10,57,0.00
2015,01,16,10,58,0.00
2015,01,16,10,59,0.00
2015,01,16,11,00,0.00
2015,01,16,11,01,0.00
2015,01,16,11,02,0.00
2015,01,16,11,03,0.00
2015,01,16,11,04,0.00
2015,01,16,11,05,0.00
2015,01,16,11,06,0.00
2015,01,16,11,07,0.00
2015,01,16,11,08,0.00
2015,01,16,11,09,0.00
2015,01,16,11,10,0.00
2015,01,16,11,11,0.00
2015,01,16,11,12,0.00
2015,01,16,11,13,0.00
2015,01,16,11,14,0.00
2015,01,16,11,15,0.00
2015,01,16,11,16,0.00
2015,01,16,11,17,0.00
2015,01,16,11,18,0.00
2015,01,16,11,19,0.00
2015,01,16,11,20,0.00
2015,01,16,11,21,0.00
2015,01,16,11,22,0.00
2015,01,16,11,23,0.00
2015,01,16,11,24,0.00
2015,01,16,11,25,0.00
2015,01,16,11,26,0.10
2015,01,16,11,27,0.00
2015,01,16,11,28,0.00
2015,01,16,11,29,0.00
2015,01,16,11,30,0.00
2015,01,16,11,31,0.00
2015,01,16,11,32,0.00
2015,01,16,11,33,0.00
2015,01,16,11,34,0.10
2015,01,16,11,35,0.00
2015,01,16,11,36,1.60
2015,01,16,11,37,1.10
2015,01,16,11,38,0.00
2015,01,16,11,39,2.10
2015,01,16,11,40,0.00
2015,01,16,11,41,0.00
2015,01,16,11,42,0.00
2015,01,16,11,43,0.00
2015,01,16,11,44,0.00
2015,01,16,11,45,0.00
2015,01,16,11,46,0.00
2015,01,16,11,47,0.00
2015,01,16,11,48,0.00
2015,01,16,11,49,0.00
2015,01,16,11,50,0.00
2015,01,16,11,51,0.00
2015,01,16,11,52,0.00
2015,01,16,11,53,0.00
2015,01,16,11,54,0.00
2015,01,16,11,55,0.10
2015,01,16,11,56,0.00
2015,01,16,11,57,0.00
2015,01,16,11,58,2.30
2015,01,16,11,59,2.00
2015,01,16,12,00,0.00
2015,01,16,12,01,0.00
2015,01,16,12,02,1.80
2015,01,16,12,03,2.00
2015,01,16,12,04,1.00
2015,01,16,12,05,0.00
2015,01,16,12,06,0.00
2015,01,16,12,07,0.00
2015,01,16,12,08,0.00
2015,01,16,12,09,0.10
2015,01,16,12,10,0.00
2015,01,16,12,11,0.00
2015,01,16,12,12,3.40
2015,01,16,12,13,1.60
2015,01,16,12,14,0.00
2015,01,16,12,15,0.10
2015,01,16,12,16,0.00
2015,01,16,12,17,0.00
2015,01,16,12,18,0.10
2015,01,16,12,19,0.00
2015,01,16,12,20,0.00
2015,01,16,12,21,0.00
2015,01,16,12,22,0.00
2015,01,16,12,23,0.10
2015,01,16,12,24,3.30
2015,01,16,12,25,5.00
2015,01,16,12,26,3.80
2015,01,16,12,27,0.50
2015,01,16,12,28,0.10
2015,01,16,12,29,4.00
2015,01,16,12,30,4.00
2015,01,16,12,31,2.90
2015,01,16,12,32,0.10
2015,01,16,12,33,2.30
2015,01,16,12,34,0.80
2015,01,16,12,35,1.20
2015,01,16,12,36,2.10
2015,01,16,12,37,0.00
2015,01,16,12,38,0.00
2015,01,16,12,39,0.00
2015,01,16,12,40,0.00
2015,01,16,12,41,0.00
2015,01,16,12,42,0.00
2015,01,16,12,43,0.00
2015,01,16,12,44,0.10
2015,01,16,12,45,0.00
2015,01,16,12,46,0.00
2015,01,16,12,47,0.00
2015,01,16,12,48,0.00
2015,01,16,12,49,0.00
2015,01,16,12,50,0.00
2015,01,16,12,51,0.10
2015,01,16,12,52,0.10
2015,01,16,12,53,0.00
2015,01,16,12,54,2.60
2015,01,16,12,55,1.90
2015,01,16,12,56,0.00
2015,01,16,12,57,0.10
2015,01,16,12,58,0.00
2015,01,16,12,59,0.00
2015,01,16,13,00,0.00
2015,01,16,13,01,0.00
2015,01,16,13,02,0.00
2015,01,16,13,03,0.00
2015,01,16,13,04,0.00
2015,01,16,13,05,0.00
2015,01,16,13,06,0.00
2015,01,16,13,07,0.00
2015,01,16,13,08,0.00
2015,01,16,13,09,0.00
2015,01,16,13,10,0.00
2015,01,16,13,11,0.00
2015,01,16,13,12,0.00
2015,01,16,13,13,0.20
2015,01,16,13,14,2.10
2015,01,16,13,15,0.00
2015,01,16,13,16,0.00
2015,01,16,13,17,0.00
2015,01,16,13,18,0.00
2015,01,16,13,19,0.10
2015,01,16,13,20,2.90
2015,01,16,13,21,3.40
2015,01,16,13,22,0.10
2015,01,16,13,23,0.00
2015,01,16,13,24,0.00
2015,01,16,13,25,0.00
2015,01,16,13,26,0.00
2015,01,16,13,27,0.00
2015,01,16,13,28,0.00
2015,01,16,13,29,0.00
2015,01,16,13,30,0.00
2015,01,16,13,31,0.00
2015,01,16,13,32,0.00
2015,01,16,13,33,0.00
2015,01,16,13,34,0.00
2015,01,16,13,35,0.00
2015,01,16,13,36,0.00
2015,01,16,13,37,0.00
2015,01,16,13,38,0.00
2015,01,16,13,39,0.10
2015,01,16,13,40,0.00
2015,01,16,13,41,0.00
2015,01,16,13,42,0.00
2015,01,16,13,43,0.10
2015,01,16,13,44,0.00
2015,01,16,13,45,0.00
2015,01,16,13,46,0.00
2015,01,16,13,47,0.00
2015,01,16,13,48,6.20
2015,01,16,13,49,6.40
2015,01,16,13,50,4.00
2015,01,16,13,51,1.20
2015,01,16,13,52,5.50
2015,01,16,13,53,9.40
2015,01,16,13,54,3.60
2015,01,16,13,55,5.60
2015,01,16,13,56,0.10
2015,01,16,13,57,1.10
2015,01,16,13,58,0.00
2015,01,16,13,59,0.00
2015,01,16,14,00,0.00
2015,01,16,14,01,0.00
2015,01,16,14,02,0.00
2015,01,16,14,03,0.00
2015,01,16,14,04,0.00
2015,01,16,14,05,1.30
2015,01,16,14,06,0.00
2015,01,16,14,07,0.00
2015,01,16,14,08,0.00
2015,01,16,14,09,0.00
2015,01,16,14,10,0.00
2015,01,16,14,11,0.00
2015,01,16,14,12,0.00
2015,01,16,14,13,1.50
2015,01,16,14,14,4.10
2015,01,16,14,15,7.90
2015,01,16,14,16,6.30
2015,01,16,14,17,6.00
2015,01,16,14,18,4.60
2015,01,16,14,19,4.60
2015,01,16,14,20,8.70
2015,01,16,14,21,1.80
2015,01,16,14,22,2.10
2015,01,16,14,23,1.60
2015,01,16,14,24,0.00
2015,01,16,14,25,0.30
2015,01,16,14,26,0.10
2015,01,16,14,27,0.00
2015,01,16,14,28,2.40
2015,01,16,14,29,0.90
2015,01,16,14,30,2.50
2015,01,16,14,31,0.00
2015,01,16,14,32,4.40
2015,01,16,14,33,5.10
2015,01,16,14,34,9.50
2015,01,16,14,35,7.80
2015,01,16,14,36,0.00
2015,01,16,14,37,4.80
2015,01,16,14,38,5.20
2015,01,16,14,39,7.80
2015,01,16,14,40,5.80
2015,01,16,14,41,8.60
2015,01,16,14,42,10.00
2015,01,16,14,43,7.70
2015,01,16,14,44,8.50
2015,01,16,14,45,3.00
2015,01,16,14,46,5.70
2015,01,16,14,47,8.40
2015,01,16,14,48,7.70
2015,01,16,14,49,11.30
2015,01,16,14,50,3.80
2015,01,16,14,51,0.90
2015,01,16,14,52,3.90
2015,01,16,14,53,12.20
2015,01,16,14,54,8.10
2015,01,16,14,55,3.60
2015,01,16,14,56,7.60
2015,01,16,14,57,8.20
2015,01,16,14,58,10.10
2015,01,16,14,59,9.30
2015,01,16,15,00,5.90
2015,01,16,15,01,10.20
2015,01,16,15,02,7.50
2015,01,16,15,03,4.50
2015,01,16,15,04,2.80
2015,01,16,15,05,5.80
2015,01,16,15,06,8.70
2015,01,16,15,07,3.90
2015,01,16,15,08,4.30
2015,01,16,15,09,6.60
2015,01,16,15,10,9.00
2015,01,16,15,11,4.90
2015,01,16,15,12,6.20
2015,01,16,15,13,5.10
2015,01,16,15,14,3.30
2015,01,16,15,15,11.90
2015,01,16,15,16,7.20
2015,01,16,15,17,2.20
2015,01,16,15,18,0.70
2015,01,16,15,19,6.10
2015,01,16,15,20,3.40
2015,01,16,15,21,1.80
2015,01,16,15,22,3.90
2015,01,16,15,23,4.20
2015,01,16,15,24,0.00
2015,01,16,15,25,1.40
2015,01,16,15,26,4.50
2015,01,16,15,27,6.90
2015,01,16,15,28,5.40
2015,01,16,15,29,0.70
2015,01,16,15,30,6.20
2015,01,16,15,31,5.30
2015,01,16,15,32,2.70
2015,01,16,15,33,0.50
2015,01,16,15,34,13.60
2015,01,16,15,35,9.50
2015,01,16,15,36,6.50
2015,01,16,15,37,8.00
2015,01,16,15,38,7.50
2015,01,16,15,39,6.00
2015,01,16,15,40,9.00
2015,01,16,15,41,8.30
2015,01,16,15,42,10.00
2015,01,16,15,43,1.10
2015,01,16,15,44,8.90
2015,01,16,15,45,4.20
2015,01,16,15,46,4.40
2015,01,16,15,47,3.40
2015,01,16,15,48,4.20
2015,01,16,15,49,5.50
2015,01,16,15,50,2.70
2015,01,16,15,51,5.50
2015,01,16,15,52,7.20
2015,01,16,15,53,2.70
2015,01,16,15,54,0.50
2015,01,16,15,55,1.20
2015,01,16,15,56,0.00
2015,01,16,15,57,4.40
2015,01,16,15,58,3.30
2015,01,16,15,59,2.40
2015,01,16,16,00,0.00
2015,01,16,16,01,0.10
2015,01,16,16,02,0.00
2015,01,16,16,03,0.00
2015,01,16,16,04,0.00
2015,01,16,16,05,0.00
2015,01,16,16,06,6.40
2015,01,16,16,07,2.70
2015,01,16,16,08,0.00
2015,01,16,16,09,0.00
2015,01,16,16,10,0.00
2015,01,16,16,11,0.00
2015,01,16,16,12,0.90
2015,01,16,16,13,0.20
2015,01,16,16,14,0.00
2015,01,16,16,15,0.00
2015,01,16,16,16,0.00
2015,01,16,16,17,0.00
2015,01,16,16,18,0.00
2015,01,16,16,19,0.00
2015,01,16,16,20,0.00
2015,01,16,16,21,0.00
2015,01,16,16,22,2.90
2015,01,16,16,23,1.60
2015,01,16,16,24,0.00
2015,01,16,16,25,0.00
2015,01,16,16,26,0.00
2015,01,16,16,27,4.20
2015,01,16,16,28,1.40
2015,01,16,16,29,2.40
2015,01,16,16,30,0.10
2015,01,16,16,31,0.10
2015,01,16,16,32,0.20
2015,01,16,16,33,2.90
2015,01,16,16,34,1.50
2015,01,16,16,35,0.00
2015,01,16,16,36,0.00
2015,01,16,16,37,0.10
2015,01,16,16,38,0.00
2015,01,16,16,39,0.00
2015,01,16,16,40,1.00
2015,01,16,16,41,2.60
2015,01,16,16,42,3.60
2015,01,16,16,43,1.50
2015,01,16,16,44,0.00
2015,01,16,16,45,1.00
2015,01,16,16,46,0.00
2015,01,16,16,47,1.10
2015,01,16,16,48,0.00
2015,01,16,16,49,0.00
2015,01,16,16,50,0.00
2015,01,16,16,51,0.00
2015,01,16,16,52,0.00
2015,01,16,16,53,3.60
2015,01,16,16,54,0.50
2015,01,16,16,55,0.00
2015,01,16,16,56,0.50
2015,01,16,16,57,1.00
2015,01,16,16,58,0.00
2015,01,16,16,59,0.00
2015,01,16,17,00,0.60
2015,01,16,17,01,0.00
2015,01,16,17,02,0.00
2015,01,16,17,03,0.00
2015,01,16,17,04,0.00
2015,01,16,17,05,0.00
2015,01,16,17,06,0.00
2015,01,16,17,07,0.00
2015,01,16,17,08,0.00
2015,01,16,17,09,0.00
2015,01,16,17,10,0.00
2015,01,16,17,11,0.00
2015,01,16,17,12,0.00
2015,01,16,17,13,0.00
2015,01,16,17,14,0.00
2015,01,16,17,15,0.00
2015,01,16,17,16,0.00
2015,01,16,17,17,0.00
2015,01,16,17,18,0.00
2015,01,16,17,19,0.00
2015,01,16,17,20,0.00
2015,01,16,17,21,0.00
2015,01,16,17,22,0.00
2015,01,16,17,23,0.00
2015,01,16,17,24,0.00
2015,01,16,17,25,0.00
2015,01,16,17,26,0.00
2015,01,16,17,27,0.00
2015,01,16,17,28,0.00
2015,01,16,17,29,0.00
2015,01,16,17,30,0.00
2015,01,16,17,31,0.00
2015,01,16,17,32,0.00
2015,01,16,17,33,0.00
2015,01,16,17,34,0.00
2015,01,16,17,35,0.00
2015,01,16,17,36,0.00
2015,01,16,17,37,0.10
2015,01,16,17,38,0.00
2015,01,16,17,39,0.00
2015,01,16,17,40,0.00
2015,01,16,17,41,0.00
2015,01,16,17,42,0.00
2015,01,16,17,43,0.00
2015,01,16,17,44,0.00
2015,01,16,17,45,0.00
2015,01,16,17,46,0.00
2015,01,16,17,47,0.00
2015,01,16,17,48,0.00
2015,01,16,17,49,0.00
2015,01,16,17,50,0.00
2015,01,16,17,51,0.00
2015,01,16,17,52,0.00
2015,01,16,17,53,0.00
2015,01,16,17,54,0.00
2015,01,16,17,55,0.00
2015,01,16,17,56,0.00
2015,01,16,17,57,0.80
2015,01,16,17,58,0.00